Three Rivers, MI

2:06 PM EDT on April 25, 2017 (GMT -0400)
Three Rivers Municipal-Haines

Weather History for KHAI - May, 2013

Change the Weather History Date:

Saturday, May 11, 2013

  Actual Average Record
Temperature  
Mean Temperature 44 °F -  
Max Temperature 52 °F 69 °F 87 °F (1993)
Min Temperature 35 °F 46 °F 30 °F (1949)
Degree Days  
Heating Degree Days 20    
Moisture  
Dew Point 42 °F    
Average Humidity 85    
Maximum Humidity 96    
Minimum Humidity 60    
Precipitation  
Precipitation 0.00 in - - ()
Sea Level Pressure  
Sea Level Pressure 29.90 in    
Wind  
Wind Speed 6 mph (WNW)    
Max Wind Speed 22 mph    
Max Gust Speed 32 mph    
Visibility 9 miles    
Events Rain    
Averages and records for this station are not official NWS values.
T = Trace of Precipitation, MM = Missing Value Source: NWS Daily Summary

Daily Weather History Graph

Daily Weather History Graph

Search for Another Location

Airport or City:

Trip Planner

Search our weather history database for the weather conditions in past years. The results will help you decide how hot, cold, wet, or windy it might be!

Date:

Astronomy

May. 11, 2013 Rise Set
Actual Time 6:25 AM EDT 8:52 PM EDT
Civil Twilight 5:54 AM EDT 9:23 PM EDT
Nautical Twilight 5:15 AM EDT 10:03 PM EDT
Astronomical Twilight 4:31 AM EDT 10:46 PM EDT
Moon 7:32 AM EDT (5/11) 10:32 PM EDT (5/11)
Length of Visible Light 15h 29m
Length of Day
14h 26m
Waxing Crescent, 3% of the Moon is Illuminated
May 11
Waxing Crescent
May 18
First Quarter
May 25
Full
May 31
Last Quarter
Jun 8
New

Hourly Weather History & Observations

Time (EDT) Temp. Windchill Dew Point Humidity Pressure Visibility Wind Dir Wind Speed Gust Speed Precip Events Conditions
12:15 AM 45.5 °F 44.2 °F 44.1 °F 95% 29.92 in 10.0 mi North 3.5 mph - N/A   Overcast
12:34 AM 45.7 °F 43.4 °F 44.4 °F 95% 29.92 in 10.0 mi NNW 4.6 mph - N/A   Overcast
12:54 AM 45.7 °F - 44.4 °F 95% 29.91 in 10.0 mi Calm Calm - N/A   Overcast
1:15 AM 45.7 °F 44.4 °F 44.6 °F 96% 29.90 in 7.0 mi North 3.5 mph - N/A   Overcast
1:34 AM 45.9 °F 43.6 °F 44.8 °F 96% 29.90 in 7.0 mi NNW 4.6 mph - N/A   Overcast
1:55 AM 45.9 °F 44.6 °F 44.8 °F 96% 29.91 in 10.0 mi North 3.5 mph - N/A   Overcast
2:15 AM 45.7 °F 43.4 °F 44.6 °F 96% 29.90 in 7.0 mi North 4.6 mph - N/A   Overcast
2:34 AM 45.9 °F - 44.6 °F 95% 29.91 in 5.0 mi Calm Calm - N/A   Overcast
2:55 AM 46.4 °F - 44.6 °F 93% 29.91 in 10.0 mi Calm Calm - N/A   Overcast
3:15 AM 46.4 °F - 44.1 °F 92% 29.91 in 10.0 mi Calm Calm - N/A   Overcast
3:34 AM 46.4 °F 44.3 °F 43.9 °F 91% 29.91 in 10.0 mi NNW 4.6 mph - N/A   Overcast
3:55 AM 46.4 °F 45.2 °F 43.3 °F 89% 29.92 in 10.0 mi North 3.5 mph - N/A   Overcast
4:15 AM 46.4 °F 44.3 °F 43.7 °F 90% 29.92 in 10.0 mi NW 4.6 mph - N/A   Overcast
4:34 AM 46.4 °F 44.3 °F 43.5 °F 90% 29.92 in 10.0 mi NW 4.6 mph - N/A   Overcast
4:55 AM 46.4 °F 44.3 °F 43.9 °F 91% 29.91 in 10.0 mi NW 4.6 mph - N/A   Overcast
5:15 AM 46.4 °F 43.5 °F 43.9 °F 91% 29.91 in 10.0 mi NW 5.8 mph - N/A   Overcast
5:34 AM 46.2 °F 43.3 °F 43.7 °F 91% 29.91 in 10.0 mi NNW 5.8 mph - N/A   Overcast
5:55 AM 46.4 °F 45.2 °F 43.9 °F 91% 29.91 in 10.0 mi WNW 3.5 mph - N/A   Overcast
6:14 AM 46.8 °F - 44.6 °F 92% 29.91 in 10.0 mi WNW 3.5 mph - N/A   Overcast
6:35 AM 46.8 °F - 44.8 °F 93% 29.91 in 10.0 mi Calm Calm - N/A   Overcast
6:55 AM 46.6 °F - 44.6 °F 93% 29.90 in 10.0 mi West 8.1 mph - N/A   Overcast
7:14 AM 46.4 °F 41.9 °F 44.1 °F 92% 29.90 in 10.0 mi WNW 9.2 mph - N/A   Overcast
7:35 AM 46.2 °F 42.7 °F 43.9 °F 92% 29.90 in 10.0 mi NW 6.9 mph - N/A   Overcast
7:55 AM 45.9 °F 41.7 °F 43.7 °F 92% 29.91 in 7.0 mi WNW 8.1 mph - N/A   Overcast
8:14 AM 45.7 °F 41.0 °F 43.5 °F 92% 29.90 in 10.0 mi WNW 9.2 mph - N/A   Overcast
8:35 AM 45.5 °F 41.3 °F 43.7 °F 93% 29.90 in 10.0 mi NW 8.1 mph - N/A   Overcast
8:55 AM 45.7 °F 41.5 °F 43.5 °F 92% 29.89 in 10.0 mi NW 8.1 mph - N/A   Overcast
9:14 AM 46.4 °F 42.4 °F 43.7 °F 90% 29.90 in 10.0 mi West 8.1 mph - N/A   Overcast
9:35 AM 46.4 °F 42.9 °F 43.9 °F 91% 29.90 in 10.0 mi West 6.9 mph - N/A   Overcast
9:55 AM 46.9 °F - 44.1 °F 90% 29.89 in 10.0 mi West 4.6 mph - N/A   Overcast
10:14 AM 47.7 °F - 44.6 °F 89% 29.88 in 10.0 mi WNW 5.8 mph - N/A   Overcast
10:35 AM 48.2 °F - 44.8 °F 88% 29.89 in 10.0 mi West 8.1 mph - N/A   Overcast
10:54 AM 47.3 °F - 44.4 °F 90% 29.88 in 10.0 mi West 5.8 mph - N/A   Overcast
11:14 AM 47.7 °F - 44.4 °F 89% 29.87 in 10.0 mi WSW 4.6 mph - N/A   Overcast
11:35 AM 48.9 °F - 45.7 °F 89% 29.87 in 10.0 mi SW 6.9 mph - N/A   Overcast
11:54 AM 49.1 °F - 45.3 °F 87% 29.87 in 10.0 mi SW 8.1 mph - N/A   Overcast
12:15 PM 50.2 °F - 46.2 °F 86% 29.87 in 10.0 mi SW 11.5 mph - N/A   Overcast
12:34 PM 49.5 °F - 45.1 °F 85% 29.87 in 10.0 mi SW 8.1 mph - N/A   Overcast
12:55 PM 49.5 °F - 45.3 °F 86% 29.86 in 10.0 mi WSW 9.2 mph - N/A   Overcast
1:15 PM 50.2 °F - 45.1 °F 83% 29.85 in 7.0 mi SW 9.2 mph - N/A   Overcast
1:34 PM 52.3 °F - 46.6 °F 81% 29.84 in 7.0 mi SSW 10.4 mph - N/A   Overcast
1:55 PM 52.0 °F - 46.4 °F 81% 29.82 in 7.0 mi SSW 11.5 mph 18.4 mph N/A   Overcast
2:15 PM 51.6 °F - 45.9 °F 81% 29.82 in 7.0 mi SSW 11.5 mph - N/A   Overcast
2:34 PM 50.9 °F - 45.5 °F 82% 29.82 in 5.0 mi SSW 11.5 mph - N/A   Haze
2:55 PM 52.0 °F - 46.6 °F 82% 29.82 in 5.0 mi SW 8.1 mph - N/A   Haze
3:14 PM 50.9 °F - 47.7 °F 89% 29.82 in 2.5 mi SW 10.4 mph 17.3 mph N/A Rain Light Rain
3:35 PM 51.3 °F - 48.4 °F 90% 29.82 in 5.0 mi SW 10.4 mph - N/A   Overcast
3:55 PM 51.4 °F - 48.6 °F 90% 29.83 in 4.0 mi West 18.4 mph 29.9 mph N/A Rain Rain
4:14 PM 44.8 °F 36.9 °F 42.8 °F 93% 29.86 in 7.0 mi WNW 19.6 mph 27.6 mph N/A Rain Light Rain
4:35 PM 44.1 °F 36.8 °F 41.7 °F 91% 29.87 in 10.0 mi WNW 16.1 mph 27.6 mph N/A   Overcast
4:55 PM 43.3 °F 35.0 °F 40.1 °F 88% 29.88 in 10.0 mi NW 19.6 mph 32.2 mph N/A   Overcast
5:14 PM 44.6 °F 37.4 °F 38.8 °F 80% 29.88 in 10.0 mi NW 16.1 mph 28.8 mph N/A   Overcast
5:35 PM 45.7 °F 38.6 °F 38.7 °F 76% 29.89 in 10.0 mi NW 17.3 mph 29.9 mph N/A   Mostly Cloudy
5:54 PM 47.3 °F - 39.0 °F 73% 29.89 in 10.0 mi NW 15.0 mph 23.0 mph N/A   Scattered Clouds
6:14 PM 47.5 °F - 37.2 °F 68% 29.90 in 10.0 mi NW 21.9 mph 32.2 mph N/A   Scattered Clouds
6:35 PM 48.2 °F - 37.0 °F 65% 29.90 in 10.0 mi NNW 19.6 mph 32.2 mph N/A   Scattered Clouds
6:54 PM 47.5 °F - 35.6 °F 63% 29.90 in 10.0 mi NNW 16.1 mph 26.5 mph N/A   Scattered Clouds
7:15 PM 47.3 °F - 34.7 °F 62% 29.91 in 10.0 mi NNW 13.8 mph 24.2 mph N/A   Scattered Clouds
7:34 PM 47.1 °F - 34.0 °F 60% 29.92 in 10.0 mi NW 15.0 mph - N/A   Scattered Clouds
7:55 PM 46.4 °F 41.1 °F 33.8 °F 62% 29.92 in 10.0 mi NNW 11.5 mph 23.0 mph N/A   Scattered Clouds
8:15 PM 46.0 °F 41.4 °F 34.0 °F 63% 29.93 in 10.0 mi NW 9.2 mph 16.1 mph N/A   Scattered Clouds
8:34 PM 45.0 °F 40.6 °F 34.5 °F 67% 29.94 in 10.0 mi NW 8.1 mph - N/A   Scattered Clouds
8:55 PM 43.9 °F 38.8 °F 33.8 °F 68% 29.94 in 10.0 mi WNW 9.2 mph - N/A   Clear
9:14 PM 43.7 °F 39.7 °F 33.8 °F 68% 29.95 in 10.0 mi NW 6.9 mph - N/A   Clear
9:35 PM 43.0 °F 37.2 °F 33.8 °F 70% 29.95 in 10.0 mi WNW 10.4 mph 17.3 mph N/A   Clear
10:14 PM 41.4 °F 35.7 °F 34.2 °F 76% 29.96 in 10.0 mi NW 9.2 mph - N/A   Clear
10:35 PM 39.4 °F 35.2 °F 34.5 °F 83% 29.96 in 10.0 mi WNW 5.8 mph - N/A   Clear
10:55 PM 37.8 °F 33.3 °F 34.2 °F 87% 29.97 in 10.0 mi West 5.8 mph - N/A   Clear
11:14 PM 37.4 °F 33.8 °F 34.5 °F 89% 29.97 in 10.0 mi WNW 4.6 mph - N/A   Clear
11:35 PM 37.2 °F - 34.9 °F 91% 29.97 in 10.0 mi Calm Calm - N/A   Clear
11:55 PM 35.8 °F 31.9 °F 33.4 °F 91% 29.97 in 10.0 mi West 4.6 mph - N/A   Clear